Wind_Gust
20 20 20 20 20 21 20 20 21 21 21 21 21 22 21 21 22 22 21 21 21 23 23 24 23 24 24 24 25 23 22 19 20 18 15 30 15 18 23 23 25 24 22 19 13 11 13 7 10 7 11 12 11 14 12 10 10 14 26 29 28 19 25 22 24 26 14 22 16 13 14 16 16 7 10 10 15 15 11 14 8 18 15 16 23 25 29 28
20 20 20 21 20 20 20 20 20 21 21 21 22 22 22 22 22 22 22 21 21 22 23 23 24 24 24 24 24 24 21 18 23 20 30 27 18 25 25 23 22 22 20 18 16 13 12 8 8 11 14 16 7 14 13 19 13 26 18 24 37 22 19 21 21 16 19 16 12 19 17 20 19 15 14 14 10 12 13 11 14 19 18 19 22 26 28 29
20 21 21 21 21 21 21 21 21 21 21 21 21 22 22 22 22 22 22 22 21 21 22 22 23 23 24 23 23 22 18 21 21 25 26 12 22 17 14 20 19 18 17 18 16 14 13 8 9 15 15 14 12 16 14 21 19 17 17 28 27 10 11 16 17 16 12 13 14 12 12 16 10 13 10 13 14 11 13 16 12 18 19 20 22 25 27 28
20 21 21 21 21 21 21 21 21 21 21 21 22 21 22 22 22 22 22 22 22 21 20 21 22 23 23 23 23 19 17 21 21 14 13 15 14 12 19 24 21 17 12 14 13 18 9 6 5 14 13 17 13 8 23 18 27 15 19 28 17 13 16 13 11 15 13 10 13 12 8 15 9 12 15 10 12 14 12 15 19 21 24 25 26 27 28 29
21 21 21 21 21 21 21 21 21 21 22 21 22 21 21 22 21 22 22 22 22 22 21 21 20 21 22 21 20 15 18 18 19 11 15 23 19 19 22 25 24 13 9 11 9 11 9 10 10 10 14 22 13 12 16 14 12 15 22 11 9 8 16 10 12 11 12 5 6 8 15 14 9 6 11 15 19 16 14 16 20 27 28 32 31 30 29 30
21 21 21 21 21 21 21 22 22 22 22 22 22 22 21 21 22 21 22 22 22 22 22 20 20 19 20 18 14 9 13 20 9 12 11 24 21 21 21 22 25 14 9 12 11 7 11 9 12 20 20 17 20 26 13 21 15 28 13 11 7 8 15 7 11 8 9 12 12 10 9 9 12 10 6 11 14 8 8 9 23 27 29 29 29 32 30 31
21 22 22 22 22 22 22 22 22 22 22 22 23 22 22 22 21 21 21 22 22 22 22 21 19 19 18 14 13 6 13 34 13 15 25 26 21 21 22 15 18 16 8 7 11 12 12 13 16 15 16 13 13 26 9 17 12 17 22 9 14 9 12 5 9 7 11 8 13 10 6 10 10 14 9 10 8 12 15 12 18 18 21 24 31 30 33 34
22 22 22 22 22 22 22 23 23 22 22 22 22 22 22 22 22 23 21 21 21 21 22 21 19 18 16 9 18 11 14 28 18 14 21 19 18 19 19 9 18 14 13 11 7 11 11 16 20 11 17 24 12 24 14 14 20 26 24 9 6 9 11 8 6 6 7 9 7 5 8 8 8 8 10 8 10 11 13 16 18 21 23 25 26 29 27 27
23 22 23 23 23 23 23 23 23 24 23 23 23 22 22 21 22 22 23 22 21 20 20 20 20 18 11 8 13 20 27 23 22 21 10 13 16 18 15 15 15 15 11 8 11 8 11 16 13 16 15 17 11 21 16 18 27 25 14 12 8 10 13 13 9 8 6 5 7 7 9 8 10 7 10 7 8 9 14 19 21 23 23 26 27 28 27 28
23 23 23 23 24 23 23 24 24 24 24 24 23 23 22 21 21 22 23 23 21 21 21 20 20 17 11 7 8 16 14 6 7 12 10 18 21 19 17 8 13 13 13 12 13 8 10 10 11 7 6 9 11 12 11 21 15 15 17 16 16 13 10 7 16 13 9 9 7 12 7 14 9 13 19 8 9 12 16 20 20 24 25 25 25 26 26 27
24 24 24 24 24 24 25 25 25 25 24 24 24 23 22 22 22 22 23 23 23 21 21 20 19 15 12 8 18 30 9 10 8 18 20 22 21 19 17 14 9 10 9 12 10 9 10 9 7 8 9 18 13 13 17 16 6 8 19 20 19 16 14 7 6 10 8 16 14 9 12 8 6 12 18 13 14 18 21 20 21 21 23 25 23 25 24 25
24 24 24 24 24 25 25 25 25 25 25 24 23 23 22 21 22 23 24 23 23 22 20 18 18 15 13 18 27 39 14 17 26 23 22 18 21 19 16 17 12 12 8 12 14 11 12 10 8 10 19 9 16 9 18 13 11 9 14 15 17 17 31 21 18 11 11 18 12 15 14 20 15 14 12 18 20 21 21 23 22 22 22 21 22 23 25 27
24 25 24 25 25 26 26 25 25 26 26 25 24 23 23 22 23 25 24 24 22 22 19 18 16 9 11 28 35 28 25 29 29 23 22 21 19 18 19 19 17 15 14 13 13 6 5 6 6 10 10 9 9 25 10 8 14 8 10 11 14 19 26 26 18 14 12 10 12 19 29 29 21 15 10 20 23 21 19 22 24 22 22 22 22 24 23 24
24 24 25 26 25 25 26 26 26 26 26 25 25 25 24 25 26 27 28 27 26 24 20 16 12 8 14 30 19 9 10 17 18 19 25 22 13 18 12 16 18 16 14 16 17 14 13 10 8 9 10 10 12 14 8 10 12 23 13 13 22 19 19 20 30 19 19 13 13 19 34 19 12 15 14 20 25 25 26 24 24 23 23 24 24 25 27 26
24 25 25 25 26 26 27 27 27 27 27 27 25 25 24 26 28 28 28 28 25 21 17 12 6 9 18 33 14 19 22 23 19 21 22 12 11 16 10 11 15 16 17 18 12 9 10 8 8 12 15 10 12 10 10 12 19 21 26 30 21 24 11 11 22 26 32 16 13 17 28 23 12 13 17 23 25 27 29 26 26 26 26 25 24 25 26 27
25 25 26 26 26 27 27 27 27 28 27 26 26 25 27 27 27 28 27 25 25 19 13 8 11 15 16 36 21 9 11 12 17 16 15 13 11 15 10 9 6 9 14 14 14 9 9 11 14 12 9 8 10 12 12 17 19 26 30 14 31 25 16 10 17 22 28 22 11 25 17 9 17 14 17 21 26 27 30 28 27 26 26 26 26 27 25 22
26 26 26 27 26 26 28 28 28 28 27 26 26 24 23 27 26 25 23 19 13 8 14 12 11 15 16 14 16 12 16 16 8 8 6 11 13 14 8 9 11 9 13 7 12 10 9 12 11 13 11 15 13 15 22 22 21 32 29 19 14 28 20 21 12 13 27 26 24 22 26 11 8 9 21 24 25 27 27 30 29 30 29 28 24 24 25 25
26 27 27 26 27 27 27 28 28 28 27 26 24 21 29 26 23 11 7 10 10 11 12 10 8 9 32 22 27 15 7 7 8 13 15 16 17 14 14 13 8 9 13 12 10 14 14 16 17 18 16 18 20 23 35 36 34 29 26 19 16 17 22 20 21 19 23 31 28 23 26 24 10 11 20 26 27 27 29 30 30 30 27 25 24 23 24 24
27 27 27 27 27 28 28 29 30 30 27 25 19 21 23 13 7 5 9 7 9 10 13 16 16 19 20 8 12 10 11 8 13 11 14 9 7 10 9 10 9 11 18 20 16 17 16 13 14 17 30 30 31 28 22 13 15 14 22 24 19 26 31 35 21 13 28 28 32 27 33 29 18 13 18 19 23 27 28 26 24 26 27 26 25 24 24 26
28 28 28 29 28 28 29 30 29 29 27 19 19 18 12 16 15 12 7 8 17 17 18 15 25 20 21 26 15 9 8 10 17 11 12 8 7 6 8 11 10 10 19 28 22 21 20 24 29 31 25 23 14 18 15 12 6 19 20 18 21 21 18 15 21 12 24 26 29 25 24 27 22 17 21 23 22 24 24 24 24 27 27 24 24 25 26 26
30 29 30 30 29 29 30 30 28 26 24 14 10 11 15 12 17 21 16 24 24 20 22 24 26 29 33 21 21 15 22 14 13 16 13 8 9 11 12 14 13 18 18 16 22 16 20 25 26 16 9 15 18 17 21 8 6 21 22 23 18 22 23 22 24 13 19 22 20 19 26 29 25 18 20 21 24 25 27 29 28 28 27 27 27 27 27 24
31 31 31 30 31 31 31 29 28 26 13 5 6 8 9 9 8 9 11 31 16 23 24 28 21 26 25 25 25 9 8 23 24 22 26 12 14 17 12 17 16 21 16 19 20 24 28 32 18 13 10 17 16 18 22 18 6 6 25 23 19 22 13 11 17 13 17 20 17 19 28 30 22 17 17 23 26 29 30 30 30 31 29 29 28 27 26 18
31 32 32 31 31 31 30 29 27 23 8 5 5 8 11 9 6 6 8 25 37 16 24 24 22 27 30 24 19 11 18 27 28 17 14 19 14 23 15 20 17 14 20 25 29 24 28 24 14 17 12 19 21 21 23 21 12 8 15 26 29 18 25 24 18 13 16 22 12 18 24 20 10 8 15 21 26 23 21 24 22 19 25 29 29 26 25 26
31 30 31 31 32 29 31 29 23 8 6 4 10 14 8 6 7 7 8 18 28 16 17 19 21 18 21 22 17 22 22 16 16 22 14 22 21 15 18 17 15 19 27 27 26 24 18 13 16 20 13 20 24 24 26 24 20 13 10 14 23 17 19 12 22 17 13 8 8 19 23 14 12 12 16 18 14 8 15 19 19 15 17 20 17 18 24 26
31 31 31 30 30 31 28 28 10 5 5 13 14 9 9 8 8 9 11 21 20 23 6 8 11 12 17 6 12 20 17 20 22 13 9 18 19 20 18 17 19 23 21 19 17 14 12 11 22 23 18 20 24 28 32 25 19 15 14 12 13 15 16 6 18 21 21 22 15 23 20 29 11 14 18 20 20 18 15 18 23 24 20 16 21 24 21 19
32 31 31 29 29 28 28 21 7 6 14 19 13 6 6 5 8 8 8 17 24 10 7 8 11 12 14 8 14 12 11 18 16 29 18 15 11 17 22 21 23 24 17 17 20 19 16 9 18 28 22 18 23 24 25 23 21 14 16 16 10 10 13 14 23 26 24 32 24 19 26 18 9 18 18 20 21 23 18 17 20 18 22 23 26 26 25 25
31 32 31 29 27 25 21 14 8 12 17 11 5 6 5 7 8 7 14 16 15 11 7 6 8 17 14 11 17 14 11 15 6 12 19 20 16 10 16 19 17 9 16 18 20 24 17 15 14 21 26 24 23 27 27 30 22 20 8 13 13 9 14 13 20 21 10 10 10 12 23 19 18 21 18 19 24 26 24 19 21 21 21 26 28 26 23 22
33 32 31 30 28 20 17 22 19 16 15 7 7 7 5 8 8 6 10 21 23 7 7 8 13 10 9 11 17 21 10 9 8 9 19 13 12 10 14 16 18 18 21 25 30 13 26 17 17 21 24 27 28 16 17 24 26 18 9 14 15 13 8 10 15 15 8 16 22 22 11 25 23 12 11 21 21 25 28 29 27 27 27 28 27 26 25 23
34 33 33 32 30 27 21 17 14 19 8 7 7 7 8 7 5 6 9 14 14 14 14 8 11 8 7 10 16 18 12 13 9 8 13 9 17 11 20 13 14 17 19 23 25 9 22 18 15 16 24 28 15 15 20 27 25 18 10 8 9 8 7 7 11 14 9 18 27 23 24 34 17 10 14 19 22 26 29 30 31 33 33 33 32 28 26 22
35 35 35 32 28 14 8 7 18 17 6 9 7 8 8 5 5 8 10 16 12 17 7 10 9 8 11 11 13 13 14 9 7 7 16 17 17 10 12 11 19 19 21 19 18 12 10 16 14 19 25 16 18 14 20 23 22 11 15 13 11 9 10 7 8 8 11 20 19 16 22 23 25 17 20 28 30 25 24 26 28 29 29 28 30 30 28 23
39 39 36 32 21 12 10 13 18 15 15 8 8 7 4 5 8 10 12 15 11 11 7 7 7 6 9 12 14 11 11 12 11 10 14 12 13 12 8 17 8 20 19 19 23 16 9 13 19 15 12 15 21 15 18 24 25 15 21 20 16 11 9 10 8 8 21 23 10 14 22 17 31 18 16 20 17 26 27 27 29 28 30 32 28 29 26 24
40 42 39 32 20 12 14 10 9 7 12 11 8 7 6 12 10 12 19 11 20 7 8 7 4 7 10 11 11 9 15 9 12 11 19 22 18 20 20 20 29 26 25 26 26 16 14 12 11 13 18 22 30 23 19 25 25 24 21 21 24 23 21 20 18 25 27 23 9 9 19 16 33 14 16 25 22 23 27 29 29 28 29 27 24 25 24 26
41 41 37 20 9 11 19 10 6 8 13 12 9 4 6 10 20 12 19 7 18 5 11 4 8 11 7 9 10 10 8 9 10 9 14 17 19 16 14 15 16 15 24 28 23 22 13 8 12 14 19 26 27 34 32 31 35 31 32 31 29 29 27 23 22 14 12 12 9 12 11 25 12 18 15 20 26 26 27 28 22 20 22 23 25 24 25 26
40 35 23 9 10 13 8 11 7 8 11 8 6 5 7 13 20 9 14 11 14 6 7 9 10 11 11 12 6 10 13 6 13 14 14 20 20 18 18 11 9 8 12 24 33 26 20 18 23 23 28 25 33 30 26 18 33 30 8 27 19 13 26 21 25 28 21 20 12 6 21 21 21 16 16 24 24 24 19 13 9 12 16 18 22 23 24 25
37 22 11 8 6 10 14 12 13 8 6 6 4 7 12 17 13 13 16 11 12 7 9 6 9 6 8 9 3 11 12 15 11 15 15 21 24 19 22 20 15 8 19 28 12 22 14 13 14 20 7 27 27 20 14 16 20 17 13 12 16 23 12 14 15 14 18 19 14 19 22 12 19 9 9 9 10 9 15 14 15 15 18 21 23 26 27 28
23 18 7 8 7 5 11 13 11 9 9 6 8 11 14 12 15 6 14 6 11 12 17 13 5 3 5 4 6 8 13 14 12 13 19 17 21 21 15 16 21 14 22 26 22 28 16 19 12 26 13 27 26 20 17 22 39 31 21 34 22 12 15 14 7 9 7 12 20 10 13 12 15 10 8 8 10 11 15 18 19 18 21 24 25 26 26 28
21 20 13 12 9 8 10 13 15 13 8 6 8 14 10 17 13 9 11 12 15 10 10 9 7 4 6 7 11 14 12 15 14 16 22 15 20 17 19 13 11 14 17 14 23 14 28 17 13 32 21 17 24 20 17 21 13 23 31 20 10 9 11 11 18 9 14 23 18 12 23 13 15 25 9 10 13 13 18 21 23 20 22 27 27 28 30 31
21 14 10 10 13 8 12 15 14 10 7 5 12 17 7 15 10 9 9 14 8 4 8 5 6 6 7 12 14 14 10 10 15 14 21 19 20 18 16 22 15 18 20 14 14 14 15 16 17 25 22 19 19 22 21 15 11 26 25 12 35 23 19 7 14 16 20 20 15 13 8 12 16 15 10 12 16 17 18 18 20 23 27 27 26 28 27 25
10 7 10 13 9 8 14 12 9 8 7 10 12 17 7 13 15 12 11 14 9 5 6 7 8 7 6 6 7 11 16 11 16 13 24 19 15 21 22 18 18 19 18 13 11 10 11 13 18 14 19 19 23 30 35 32 9 9 14 24 11 13 9 14 18 10 17 9 9 12 11 25 19 19 17 19 21 22 21 21 24 29 30 29 29 30 30 31
13 7 8 8 7 8 12 9 7 7 5 10 14 16 8 18 20 16 10 11 7 7 5 5 8 6 6 6 7 12 11 10 17 14 10 22 14 16 22 20 15 19 14 16 12 5 11 7 17 27 12 20 31 37 32 30 28 22 28 27 20 15 10 12 9 9 14 15 15 12 16 17 16 17 15 18 23 23 27 29 27 26 27 26 28 32 31 32
10 6 8 6 8 7 7 8 8 8 14 15 12 15 18 14 19 19 13 11 10 9 8 7 6 5 6 7 10 5 13 11 15 12 16 16 17 23 19 22 15 16 13 11 14 9 10 8 15 21 21 28 25 16 10 19 19 18 21 18 19 21 20 23 20 9 8 10 14 15 20 14 18 7 14 15 16 22 28 30 26 22 27 28 29 28 30 31
10 11 9 4 6 6 6 11 9 8 14 13 18 21 24 22 17 18 15 5 7 9 6 6 7 5 6 5 6 3 9 11 15 14 14 16 16 15 23 18 14 14 23 18 13 10 11 9 13 22 22 20 10 14 14 14 13 14 20 15 16 12 14 20 17 12 7 8 10 9 6 16 11 7 8 9 14 16 14 12 14 20 23 24 27 27 27 26
13 9 9 8 8 7 8 8 7 15 10 15 16 17 18 16 11 16 20 9 10 10 7 6 6 4 6 6 5 7 10 12 13 12 10 11 20 21 19 22 14 14 15 11 5 12 9 9 16 16 15 9 7 10 13 16 15 15 15 12 18 25 19 17 17 13 16 9 7 7 8 16 9 7 8 9 11 14 17 16 17 21 22 25 27 26 27 25
10 11 13 6 6 5 9 18 17 17 21 17 14 18 12 12 10 21 16 19 19 12 7 8 7 11 7 7 7 9 9 7 7 7 8 7 11 10 13 20 17 19 17 12 16 13 16 8 13 23 24 16 15 18 20 14 23 26 23 17 19 13 10 8 10 10 12 11 11 12 12 12 8 11 8 9 13 16 18 17 20 25 23 25 25 25 25 24
13 9 10 13 9 7 12 8 9 15 19 20 25 22 25 12 7 13 15 16 12 10 9 7 8 7 9 7 10 10 10 12 8 7 8 6 8 7 14 18 21 8 11 6 9 9 8 6 11 25 25 26 26 31 38 34 39 28 13 17 14 18 15 18 20 13 18 7 8 12 15 17 11 8 6 9 13 14 15 19 18 22 26 28 25 24 26 26
14 18 15 13 12 11 6 5 5 12 18 20 20 13 12 23 25 17 12 12 8 16 8 8 7 7 9 6 8 6 7 9 12 8 8 8 8 11 12 19 18 14 14 12 9 10 7 4 4 9 23 28 23 14 13 14 20 32 18 20 17 13 14 11 12 12 21 9 11 17 15 12 12 8 9 12 14 18 21 22 26 25 24 27 25 25 21 22
8 14 16 21 17 7 12 8 10 17 17 17 16 18 17 21 22 17 9 12 11 20 15 8 13 15 14 13 11 8 5 6 10 8 10 6 5 7 10 15 13 18 22 18 10 7 6 10 9 11 13 15 13 13 19 21 22 14 18 17 11 13 10 12 15 20 12 18 14 15 8 10 15 11 14 15 15 17 19 22 23 25 27 29 28 23 17 20
17 7 6 6 11 16 20 11 18 19 22 16 12 11 15 20 20 23 18 5 13 12 15 8 14 18 14 13 12 10 14 10 13 12 12 10 7 12 21 12 18 12 12 16 5 12 12 14 8 9 12 13 9 19 24 25 21 20 22 16 16 12 13 17 16 10 13 14 20 11 11 12 13 9 11 14 14 18 18 21 21 23 26 26 28 25 23 25
10 10 9 10 13 12 11 19 24 20 22 16 16 10 19 17 19 16 11 17 17 11 12 10 13 18 16 15 12 6 12 10 9 9 15 14 7 20 20 10 10 6 10 13 11 9 9 15 10 10 7 11 13 16 23 26 21 23 26 23 20 16 18 19 17 10 16 8 9 9 12 19 11 7 11 13 14 14 17 18 22 25 27 29 28 27 24 23
16 13 13 11 12 18 16 16 19 18 17 16 18 14 21 18 19 23 17 7 15 11 11 12 18 19 16 13 11 10 5 6 9 8 11 16 9 13 13 6 6 9 7 10 13 6 12 15 8 8 11 11 7 12 21 24 22 27 23 23 19 20 20 19 16 9 6 12 7 7 10 15 11 7 8 9 16 17 17 20 25 25 28 28 30 29 27 24
11 8 13 19 22 14 15 15 16 19 16 15 18 18 19 16 19 19 19 10 11 11 14 16 19 19 11 9 9 8 8 8 11 10 12 10 7 7 10 8 5 8 12 10 8 8 11 11 7 7 12 11 7 16 16 20 19 18 17 15 18 16 17 12 18 15 13 20 8 6 12 16 10 8 10 13 19 23 22 22 23 25 27 27 28 27 27 27
9 9 12 11 14 11 17 17 15 14 15 16 15 21 21 19 20 19 22 7 10 13 16 16 18 17 12 9 7 13 17 14 14 15 12 13 11 13 11 10 7 6 7 8 7 10 12 9 10 9 14 8 6 9 17 19 19 14 14 21 22 17 11 12 8 7 17 12 13 12 20 10 9 13 16 15 20 22 25 24 24 22 25 26 26 27 26 26
Wind_Speed
15 15 16 16 15 16 16 16 16 16 16 16 16 15 15 15 16 16 16 16 16 16 15 16 15 15 16 17 18 18 18 10 12 10 9 17 6 9 15 17 17 18 17 11 8 6 7 3 5 3 4 5 3 5 4 4 2 5 8 10 12 8 12 11 12 12 6 10 9 7 8 10 10 3 4 4 8 7 5 3 2 4 4 4 3 12 16 17
15 15 16 16 15 15 15 15 15 15 16 16 16 17 16 16 15 15 15 16 16 16 15 15 15 15 15 17 18 17 14 11 14 13 18 16 7 11 15 18 17 17 15 11 10 7 6 4 4 6 6 6 2 4 7 4 5 10 4 8 15 9 7 12 10 10 9 9 7 12 11 13 12 10 6 6 5 6 5 2 1 2 4 5 8 14 16 17
15 15 15 15 15 16 15 15 16 15 15 15 15 16 16 16 16 16 16 15 16 16 16 15 15 15 16 16 16 15 12 13 13 15 13 3 11 11 10 10 15 15 10 11 9 8 7 3 4 8 7 5 5 7 7 6 7 7 5 11 11 4 5 10 11 9 7 8 8 7 7 10 5 5 5 7 8 6 6 5 3 5 6 8 12 15 16 17
16 16 16 16 16 16 16 16 16 17 16 16 15 15 15 16 15 15 15 15 16 15 15 16 15 14 15 15 14 12 10 12 8 1 8 12 11 9 10 13 17 12 6 8 8 9 5 2 1 8 5 8 5 2 10 7 8 4 6 10 4 7 7 7 7 10 7 6 8 7 4 9 5 6 7 5 6 7 6 8 9 12 12 13 14 16 16 18
16 16 16 16 16 16 16 16 16 16 16 15 16 15 15 15 15 16 15 15 15 15 15 15 16 14 14 12 11 8 10 8 2 6 9 17 12 14 13 14 18 8 2 6 4 6 4 6 5 5 5 7 6 5 7 7 3 4 11 2 4 3 9 5 7 7 7 0 3 4 9 7 4 2 6 9 11 6 6 9 12 9 15 17 18 17 17 18
16 17 17 16 16 16 16 16 16 16 16 17 17 17 16 15 15 15 15 15 15 14 14 13 14 15 13 9 8 4 6 5 3 3 5 17 13 15 14 13 17 8 4 6 5 3 6 4 6 8 7 7 11 12 6 11 8 10 5 5 3 3 8 3 6 4 5 5 7 5 4 5 7 4 1 6 8 2 1 4 9 9 17 17 17 19 18 19
16 16 17 17 16 15 15 15 15 16 16 16 16 17 17 17 16 15 15 15 14 14 14 13 12 13 14 5 6 2 4 10 3 7 18 15 14 14 15 10 12 10 4 2 6 4 7 8 9 8 7 6 7 11 4 10 7 8 5 4 8 4 6 1 5 4 6 5 6 2 2 5 5 9 3 5 2 6 8 6 4 8 13 15 18 19 20 21
16 17 17 16 17 17 17 17 17 17 17 17 17 17 16 17 17 18 17 16 15 14 14 13 11 12 10 4 8 3 6 10 9 4 12 11 12 13 14 5 12 8 7 6 2 5 6 9 12 4 7 11 3 12 8 8 13 13 10 4 2 5 6 3 1 2 3 4 2 2 4 4 5 2 5 4 4 5 6 2 7 11 13 15 16 18 18 18
17 17 17 17 17 17 17 17 18 18 18 18 18 17 17 16 16 16 18 17 16 16 14 12 12 11 4 2 5 9 10 10 10 2 2 8 11 12 10 7 9 9 5 3 6 3 5 8 6 8 6 9 5 13 9 10 11 13 8 7 3 5 8 8 4 3 2 1 3 3 4 3 4 3 5 2 3 4 1 6 10 12 14 16 17 18 18 18
17 17 17 17 17 17 17 17 18 18 18 19 18 18 17 17 16 16 16 18 16 16 15 13 12 10 6 2 3 7 4 2 1 1 5 12 14 13 11 4 7 7 7 6 7 3 4 1 6 2 2 4 5 5 6 13 2 8 10 9 9 7 5 3 10 8 4 3 3 6 3 8 4 6 7 2 3 3 5 7 9 13 15 16 15 16 17 17
18 17 17 17 17 18 18 18 19 19 18 18 18 18 17 17 17 17 17 17 18 16 15 14 11 9 6 3 8 14 1 5 2 9 14 14 14 11 11 8 5 4 4 7 4 4 5 4 2 2 2 4 6 6 9 5 1 3 11 13 12 10 8 2 1 6 2 6 8 4 6 3 1 5 8 6 7 9 9 9 11 13 13 14 15 15 15 15
18 18 18 17 18 18 18 18 18 19 19 19 18 17 17 17 17 18 18 17 18 17 16 13 11 6 6 9 12 15 3 8 14 13 13 12 11 11 11 10 7 7 3 6 8 6 7 5 3 3 3 2 5 4 9 7 6 4 8 7 11 11 13 13 9 5 6 7 7 9 8 12 8 7 6 10 11 12 10 12 13 13 13 13 13 13 14 15
17 17 18 18 18 18 18 19 19 19 19 19 19 18 17 17 17 20 20 19 17 18 15 14 9 4 5 13 16 16 15 14 18 15 13 12 10 10 11 12 11 9 8 7 7 1 1 0 2 5 2 3 3 5 3 2 8 4 5 4 7 10 13 17 11 9 7 3 7 11 11 14 11 9 5 11 11 11 10 10 12 12 12 12 13 13 13 14
18 18 18 19 19 19 19 19 20 20 20 19 20 19 19 18 19 20 22 21 21 19 16 13 6 3 6 11 3 2 6 8 12 12 16 12 7 10 7 9 10 9 8 9 11 7 7 4 3 3 3 4 2 8 3 3 6 9 6 5 8 8 6 12 14 12 11 5 8 12 15 8 6 9 6 11 13 15 13 12 12 12 13 13 13 13 15 16
19 19 18 19 19 20 20 20 21 21 21 21 20 19 19 19 19 20 22 22 20 17 13 7 2 3 7 11 7 13 17 14 12 14 13 6 6 9 5 5 9 10 9 11 5 4 4 3 3 5 4 4 5 4 2 5 8 8 9 13 9 10 3 6 14 17 16 6 7 10 12 11 6 7 10 13 14 15 14 13 14 13 14 14 14 15 14 15
19 20 20 19 20 20 20 20 20 21 21 21 21 20 20 19 19 20 20 19 19 15 7 4 5 7 7 13 3 4 5 6 10 10 8 7 5 8 6 5 2 5 8 7 5 2 3 5 6 4 2 2 4 4 5 6 7 11 14 6 14 12 6 4 10 14 19 9 7 15 4 3 8 8 10 13 16 16 14 15 14 15 16 14 14 14 13 12
20 20 20 20 20 19 21 21 21 21 21 21 21 19 18 19 19 18 15 9 2 1 6 4 5 7 5 1 7 6 6 8 4 3 2 6 8 8 4 4 5 4 7 3 6 4 4 5 4 4 4 5 5 6 9 9 9 12 13 6 7 15 9 7 6 8 17 17 12 13 11 4 3 3 12 15 16 17 14 15 16 15 14 16 13 14 14 15
21 21 21 21 21 20 21 20 21 21 22 21 20 17 16 20 16 6 1 4 4 4 5 3 3 3 11 7 11 6 3 3 2 5 8 8 10 8 8 6 4 4 7 6 5 6 6 5 7 6 6 8 8 10 14 16 14 13 11 8 6 9 13 11 8 10 15 20 17 14 15 14 4 4 10 16 17 17 17 15 16 16 16 14 14 14 15 14
21 21 21 21 20 20 21 22 22 22 21 20 14 15 16 6 1 1 3 2 2 1 1 5 5 6 5 3 5 5 5 2 5 6 8 4 2 5 4 5 4 6 8 9 6 9 6 4 5 6 13 14 15 15 10 6 7 8 13 11 10 12 14 15 10 7 18 17 18 17 16 16 11 6 9 11 14 17 17 15 13 14 15 14 14 14 13 15
22 23 22 23 22 21 21 21 21 20 21 13 10 7 2 2 2 2 2 4 8 10 12 8 13 11 10 8 6 4 3 6 8 5 7 4 1 1 4 5 4 4 9 12 11 11 8 10 12 14 12 12 9 11 6 7 1 12 12 11 11 11 9 9 13 7 15 14 17 15 15 17 14 9 11 13 13 14 15 15 13 14 14 12 14 15 16 16
23 23 24 22 22 22 22 22 20 19 18 7 5 4 4 4 7 5 6 13 15 13 14 16 16 18 16 9 7 4 7 7 7 9 6 1 4 6 3 7 6 7 8 9 10 7 9 11 13 10 4 9 11 10 12 2 1 13 13 13 8 12 11 13 13 7 10 11 10 12 16 18 16 10 12 12 15 15 16 16 16 16 15 14 17 17 17 14
24 23 23 24 22 23 22 22 20 21 8 1 1 1 3 4 3 2 3 10 7 14 16 18 14 15 13 15 12 2 2 10 15 13 13 6 6 6 5 9 8 10 8 10 10 10 12 14 9 7 5 10 9 11 14 11 2 2 11 11 9 10 6 6 10 7 8 10 7 12 16 17 14 10 10 13 15 15 17 18 17 17 16 16 16 17 16 11
23 24 23 23 23 23 22 22 20 17 2 1 0 3 4 4 2 1 3 9 16 8 14 15 14 17 17 12 9 6 11 15 12 8 6 11 8 12 8 9 9 7 10 15 14 12 13 11 7 10 7 12 13 13 15 12 6 2 7 12 13 9 12 10 9 8 9 8 4 10 13 9 4 1 8 12 14 12 13 16 15 13 16 18 18 16 15 16
22 23 22 24 22 22 22 19 17 3 1 1 5 7 4 1 2 2 3 6 11 7 9 9 12 10 12 9 5 13 13 5 6 13 6 10 10 9 8 10 9 9 13 17 17 12 9 7 9 13 8 13 14 15 17 11 9 6 4 7 10 9 10 4 10 8 8 1 1 11 11 5 5 4 6 9 8 3 9 12 11 7 9 13 11 11 14 16
24 22 22 23 23 22 21 21 3 1 1 7 8 4 4 3 3 4 4 6 6 8 2 4 4 5 8 2 6 9 9 9 13 6 2 10 10 9 8 6 7 11 13 13 12 7 4 5 14 14 11 13 15 15 18 13 8 6 8 6 8 9 10 2 11 12 8 9 7 14 5 10 5 7 9 9 9 10 9 11 14 15 13 9 12 15 14 11
23 23 24 22 22 21 21 10 1 1 8 9 6 1 2 0 3 3 1 3 9 1 2 1 3 1 5 3 6 5 5 5 9 14 9 7 6 7 7 8 7 12 10 10 9 5 6 4 12 17 14 11 15 13 16 14 9 6 5 10 5 5 8 9 15 14 10 12 11 11 11 3 2 9 9 10 12 14 10 11 13 12 13 12 15 15 13 15
25 24 24 23 21 20 9 4 4 7 9 4 1 2 1 2 3 3 2 3 5 1 2 1 2 0 2 4 8 7 4 1 2 4 10 11 9 4 8 9 7 2 6 6 4 7 7 6 9 14 16 13 12 13 15 18 10 7 1 8 7 4 8 8 12 12 3 5 4 7 9 6 6 9 10 11 14 15 15 13 14 13 14 16 18 13 12 11
26 25 25 24 22 15 8 9 10 8 8 1 2 3 1 4 4 1 1 5 4 3 1 3 3 3 4 5 10 9 5 4 1 3 11 7 6 4 6 10 9 10 11 11 14 4 17 9 11 13 15 12 12 8 11 16 10 5 4 8 9 7 3 5 8 7 2 8 9 10 5 8 8 3 5 12 11 14 17 18 17 17 17 18 17 14 15 14
26 26 26 25 24 21 11 8 7 10 3 2 3 3 3 3 1 1 0 4 2 1 3 1 2 3 1 5 9 11 6 5 3 3 3 4 10 1 8 7 7 10 12 14 11 3 9 11 9 10 12 12 7 8 12 17 11 10 5 3 3 3 1 2 4 6 3 7 12 12 12 11 6 4 6 10 11 14 15 17 18 20 21 20 19 18 16 12
28 27 28 25 19 7 3 3 9 10 2 4 3 4 4 1 1 2 1 5 3 3 1 1 2 2 6 5 5 7 8 3 3 1 5 5 10 5 5 6 9 10 11 11 10 6 5 10 8 7 11 7 10 8 12 15 14 5 9 6 5 4 3 1 2 1 3 7 8 10 14 11 8 7 8 12 12 12 12 13 15 17 18 17 18 19 16 14
28 29 28 24 9 5 4 5 9 8 9 4 3 4 2 1 2 1 4 1 1 2 1 2 2 2 4 7 6 5 6 6 5 4 4 5 6 6 3 7 2 8 8 9 11 8 1 7 8 5 7 7 13 7 11 15 17 8 7 8 7 4 3 3 1 1 6 7 4 7 13 11 12 7 6 9 9 15 15 16 17 17 19 19 17 16 16 15
28 30 30 17 9 5 6 3 4 2 6 6 4 3 1 3 2 4 4 4 5 1 2 1 2 2 5 6 6 3 5 4 6 4 8 9 9 8 8 8 10 10 10 12 11 9 4 5 5 7 10 14 15 12 9 14 15 12 10 9 11 7 4 5 5 8 9 6 3 3 12 6 15 2 5 14 13 14 17 14 16 17 18 17 14 15 14 15
30 31 28 9 4 5 10 5 2 3 7 7 5 2 1 2 6 5 3 2 3 1 2 1 4 6 3 4 4 5 2 3 5 4 8 8 9 8 9 7 10 5 8 14 12 9 4 4 6 8 11 13 15 15 13 14 16 16 14 13 12 10 9 7 8 1 3 1 3 5 6 9 3 7 7 11 16 16 16 16 14 13 13 14 14 13 14 15
28 27 11 4 4 6 3 6 2 4 6 5 3 1 3 3 6 3 4 3 6 2 3 3 5 6 6 4 1 2 4 1 7 5 8 9 9 8 8 6 4 3 4 12 12 10 9 8 10 13 10 14 17 14 14 8 16 13 4 12 8 2 4 5 7 9 8 7 4 1 7 4 10 5 9 13 14 14 10 7 2 3 6 10 12 13 15 15
26 15 6 3 1 3 8 6 7 3 3 3 0 2 3 5 4 4 5 3 2 2 4 3 4 2 3 3 1 5 4 4 4 8 5 10 11 7 10 9 9 4 10 12 5 5 8 4 6 12 1 16 15 12 6 8 9 7 2 2 5 8 1 4 1 4 7 7 4 6 4 2 7 3 4 3 3 3 7 6 7 7 9 12 12 14 15 16
15 8 3 1 2 1 4 6 7 5 4 2 2 3 6 3 4 1 3 1 3 4 9 8 1 1 1 1 1 3 8 4 2 2 5 8 11 9 9 7 8 8 9 9 8 11 5 5 7 15 8 15 16 12 8 12 12 12 8 14 8 5 4 4 2 4 3 3 6 2 3 3 4 2 2 1 4 5 8 10 11 10 12 14 14 14 15 16
9 9 3 5 3 4 4 7 7 7 4 2 2 4 2 3 6 2 3 5 8 6 4 3 1 0 2 3 4 7 4 7 4 4 6 7 8 9 9 7 6 8 11 4 9 5 11 6 8 17 13 9 15 13 11 13 2 7 10 8 5 3 4 1 5 1 4 8 3 3 11 6 6 7 2 4 6 7 10 13 14 13 13 15 14 14 16 18
8 6 4 5 7 1 6 8 8 5 3 1 4 10 1 5 2 4 3 5 3 2 3 1 1 1 2 4 5 7 5 4 7 1 8 10 4 11 10 8 10 10 13 8 3 4 6 6 7 16 14 11 12 14 12 8 6 12 11 5 12 6 7 0 1 5 7 6 3 4 3 4 7 4 2 6 9 9 10 11 12 14 15 16 14 16 16 16
4 2 2 7 4 3 7 7 4 3 3 3 4 6 1 4 6 5 6 8 4 2 2 2 3 1 2 1 3 6 7 3 8 4 9 5 4 11 11 9 10 13 12 8 3 2 3 2 6 8 10 11 12 13 14 14 4 5 7 9 1 2 0 5 1 1 4 2 2 4 5 7 7 7 8 12 12 13 12 12 15 18 19 15 14 16 18 18
5 1 2 4 2 4 7 5 1 2 1 4 6 5 3 7 9 9 5 6 2 2 1 2 2 2 1 3 2 4 5 4 8 5 3 9 3 9 12 12 6 10 9 10 6 1 2 2 5 11 6 10 11 12 14 14 13 9 12 10 5 3 2 2 2 1 4 3 4 2 5 5 4 5 7 10 11 11 14 15 14 14 15 15 16 17 18 19
4 1 1 2 3 3 3 3 2 3 5 6 6 6 8 4 9 11 7 7 4 5 4 2 2 0 2 2 4 1 3 4 6 4 5 8 7 7 10 11 8 9 6 6 8 3 0 1 5 8 8 12 12 8 6 12 11 8 9 7 9 10 8 10 5 2 1 2 2 4 6 1 7 2 7 8 6 11 14 15 13 13 14 15 15 17 17 17
3 2 2 1 2 2 1 3 1 3 4 5 7 4 6 11 8 11 9 1 3 3 2 2 3 2 1 1 1 1 2 3 6 6 6 7 9 6 11 13 9 9 9 6 5 5 2 1 4 9 9 8 4 8 7 8 8 6 10 5 8 4 4 7 5 3 1 1 2 2 2 2 3 1 1 3 5 8 8 6 7 10 14 15 15 16 16 16
4 3 4 4 4 3 3 2 2 4 4 5 9 10 10 8 5 7 11 3 1 2 1 2 2 1 1 1 0 2 4 3 7 5 5 6 11 11 10 15 10 9 8 3 1 4 3 1 6 6 7 4 2 5 8 10 9 8 7 6 8 11 10 7 6 2 3 3 2 1 1 1 2 2 2 3 5 7 7 9 10 11 12 14 16 17 16 16
3 4 4 1 2 1 2 6 6 8 8 9 8 10 7 6 4 11 7 11 7 2 2 1 2 4 3 3 2 2 4 2 3 3 3 3 3 6 9 14 11 8 8 2 4 5 3 2 4 9 8 5 7 8 9 7 10 10 9 7 11 5 4 1 1 4 2 3 1 1 3 1 3 4 2 1 6 8 10 10 11 14 13 14 15 15 14 15
4 3 3 4 2 1 3 2 3 6 9 11 12 12 11 2 4 7 9 9 7 5 3 1 1 3 3 3 4 5 5 6 2 3 2 2 1 4 9 13 15 3 4 3 6 3 2 1 3 10 10 11 10 12 16 15 18 11 6 9 8 11 9 9 8 4 6 1 3 4 3 2 2 2 1 4 6 8 8 11 11 12 16 16 14 13 15 15
4 4 4 3 2 3 2 1 2 5 8 10 10 5 6 9 10 10 7 6 5 9 1 2 2 3 2 2 3 2 2 4 5 2 2 1 1 2 6 14 13 6 10 9 6 4 1 0 1 2 10 13 11 5 7 7 8 13 10 13 10 8 8 4 3 2 8 3 3 9 8 5 6 3 3 5 7 10 12 13 14 14 15 15 15 14 13 13
1 3 4 7 6 2 5 3 4 8 7 9 5 6 7 11 11 7 6 4 6 10 6 2 6 6 7 7 5 3 1 1 3 3 5 2 1 1 6 11 8 12 14 10 7 1 2 4 4 6 8 4 6 7 11 13 12 8 11 11 7 7 4 6 5 6 6 5 5 5 2 3 8 4 6 7 8 8 10 12 13 14 15 16 16 14 13 13
3 1 2 2 4 6 9 4 10 11 13 9 4 3 8 11 11 10 8 1 8 7 6 3 7 9 3 5 6 4 7 3 6 5 7 5 2 7 8 6 9 7 8 7 2 5 5 5 2 3 6 8 3 9 16 14 13 11 14 10 9 7 7 9 5 2 8 5 8 2 2 6 7 2 4 7 7 9 10 12 13 14 15 16 17 15 15 16
3 2 2 5 4 5 5 11 15 12 13 9 5 5 11 11 12 6 3 8 8 5 7 4 8 12 10 9 6 1 6 3 2 3 7 7 3 9 7 5 6 3 5 6 5 2 2 6 4 6 3 6 8 8 15 17 13 15 17 16 12 10 10 8 7 3 7 3 3 4 4 10 3 1 3 6 8 8 8 10 12 15 17 18 18 18 15 16
5 4 4 4 5 8 9 8 9 10 8 8 7 8 8 10 12 13 7 2 5 6 6 6 11 12 10 5 5 4 2 1 5 4 6 10 3 6 5 2 1 3 1 4 5 2 5 1 4 4 5 5 3 8 14 16 15 16 16 16 13 12 11 11 9 4 2 7 4 3 6 6 1 1 3 5 9 9 9 12 15 16 17 18 19 19 16 16
2 2 4 7 9 6 7 8 8 9 6 7 7 9 10 10 11 11 10 6 6 4 7 10 12 12 6 5 5 4 1 5 7 6 8 5 1 3 2 2 1 2 2 3 3 3 5 3 2 1 3 4 3 10 11 14 13 12 11 10 11 11 10 5 4 5 6 10 2 1 6 4 2 1 4 7 11 13 13 13 14 14 17 17 18 16 18 17
3 4 5 4 4 5 7 9 8 6 6 7 6 12 7 12 13 11 8 4 6 8 10 10 12 9 7 4 4 8 11 9 9 9 6 5 5 7 5 4 3 2 2 2 2 3 4 3 2 2 3 2 2 5 11 13 10 6 7 12 13 11 6 6 2 2 10 3 3 5 9 3 1 4 7 8 11 12 14 14 14 14 16 17 17 16 13 17
Wind_Direction
347 347 346 345 346 343 345 345 344 343 341 342 339 338 339 338 334 335 335 334 333 334 333 331 335 336 336 337 335 336 333 319 313 302 283 257 246 255 276 278 279 286 288 281 266 278 277 238 214 164 166 184 169 196 154 190 154 161 204 216 225 209 198 164 184 178 151 196 192 195 190 193 212 181 153 144 74 91 87 82 20 31 35 350 87 128 142 149
345 347 346 345 344 344 344 343 343 342 342 339 338 334 334 334 333 332 333 332 331 330 332 334 329 332 337 337 338 341 329 318 300 287 256 258 240 262 274 278 289 287 277 254 225 229 252 248 189 169 163 189 125 188 161 188 189 193 189 211 232 180 212 153 176 176 149 204 166 195 187 193 202 190 161 203 158 147 115 43 58 44 47 92 125 136 147 156
346 347 345 346 344 342 343 342 341 342 341 340 336 335 331 329 332 331 332 330 330 327 330 331 330 331 334 337 343 340 329 306 302 278 285 300 249 251 274 314 317 306 259 226 208 205 208 264 163 173 193 188 180 179 198 180 182 220 200 215 222 120 150 189 159 187 211 158 192 174 199 200 181 188 112 223 180 179 169 163 210 203 176 163 152 154 157 165
345 348 344 342 343 340 339 340 340 338 339 339 335 333 331 330 328 329 325 327 326 328 328 329 330 334 329 340 351 337 314 312 283 295 91 58 50 15 0 352 345 327 244 194 176 195 216 263 243 200 150 212 166 205 182 181 191 155 219 228 180 146 157 193 193 174 199 194 204 183 97 184 207 193 187 158 164 203 218 203 185 202 184 173 168 165 164 169
346 344 343 342 339 339 334 334 335 334 333 332 332 330 331 327 327 324 323 320 323 324 326 328 329 329 330 345 356 338 326 284 45 136 89 33 20 11 5 8 3 359 141 137 148 191 193 212 192 187 184 188 178 183 224 180 236 127 222 81 100 137 206 148 188 191 193 159 189 120 156 182 121 138 181 167 218 220 207 215 221 199 171 168 172 173 171 175
343 341 341 340 338 337 336 331 332 331 328 327 328 328 326 323 323 320 317 318 319 318 322 326 327 328 329 11 338 336 350 281 74 216 287 0 13 6 4 12 11 7 74 168 198 192 181 171 188 178 186 177 189 193 157 195 168 220 196 216 124 171 192 163 185 186 184 170 193 180 196 102 169 153 266 201 215 259 242 282 219 187 171 171 170 169 177 182
341 337 338 339 336 335 333 331 330 328 326 324 323 322 322 319 319 315 312 313 312 315 315 322 325 324 332 44 322 220 234 270 259 282 328 343 10 6 358 11 15 12 6 137 219 213 202 177 198 191 177 194 199 205 154 191 200 244 211 117 196 135 184 158 181 141 184 183 199 126 108 179 133 194 158 197 262 287 285 275 231 166 158 162 172 179 184 188
338 337 336 335 336 336 336 335 331 329 328 324 324 322 318 315 313 310 312 310 310 309 313 313 320 321 336 4 336 305 262 248 256 339 318 352 10 354 354 5 13 9 22 8 337 246 198 195 187 137 204 190 158 189 172 192 201 210 224 169 143 188 207 187 237 111 152 223 68 92 176 158 180 219 135 205 255 280 286 228 170 152 160 172 179 183 189 193
335 334 334 333 334 334 332 330 329 325 325 324 322 319 315 316 310 308 306 308 306 306 308 309 311 318 63 1 315 310 263 243 261 300 60 360 350 347 348 342 2 5 345 334 344 299 218 199 187 189 219 204 186 190 178 180 223 214 204 167 161 175 196 215 223 207 164 143 162 191 204 232 226 115 218 180 257 261 276 158 160 159 171 181 187 189 189 194
332 333 334 333 332 329 329 327 326 326 325 322 322 320 318 315 313 308 305 301 302 301 301 304 304 311 312 295 259 280 313 63 44 315 331 338 342 338 322 310 344 346 341 339 328 353 216 180 204 168 323 217 156 210 169 203 203 175 191 198 203 204 189 211 222 229 194 230 160 211 183 225 185 173 225 169 206 192 167 161 168 176 183 185 189 192 195 195
333 332 332 330 328 331 331 330 327 323 324 321 322 321 315 315 311 305 299 298 297 295 295 294 300 294 284 221 243 250 129 298 343 325 312 325 325 315 299 305 312 309 310 299 293 293 292 299 324 310 279 220 162 207 190 217 101 125 191 195 208 219 236 148 160 218 148 230 196 210 233 235 95 189 231 152 179 184 173 174 182 192 188 189 193 194 197 200
332 331 329 332 331 330 329 327 324 324 324 323 320 316 314 312 307 304 298 298 294 292 287 289 288 289 269 257 241 231 339 296 300 295 301 311 295 286 282 272 258 254 247 285 292 277 266 282 312 253 177 160 197 97 236 217 204 179 155 181 207 209 225 218 210 189 183 219 176 186 245 245 183 213 184 173 171 182 183 178 188 197 195 192 194 196 200 202
331 333 332 331 330 329 328 328 327 324 324 321 318 315 313 311 308 302 299 293 291 285 285 284 286 260 270 263 251 256 261 267 276 290 298 279 283 276 262 257 245 226 222 240 258 268 14 309 355 236 307 283 175 164 7 177 203 167 202 202 165 199 226 217 211 205 189 208 167 155 232 227 201 192 156 173 171 175 184 189 194 199 197 196 197 200 203 203
334 332 332 331 330 330 330 328 327 325 322 321 319 315 314 309 305 300 296 291 285 284 283 282 276 236 234 251 267 165 255 267 268 282 274 279 296 285 266 248 242 232 219 223 244 257 261 288 308 281 347 244 153 333 245 143 171 193 165 199 215 175 222 190 205 180 204 175 173 192 232 223 156 181 165 178 174 173 187 195 200 200 200 200 201 202 207 207
333 331 331 332 329 329 330 328 326 325 322 319 317 315 310 307 300 296 293 292 285 280 272 272 203 247 250 267 277 263 255 261 261 248 253 264 260 292 279 260 229 217 210 218 222 222 223 214 195 205 217 230 268 310 140 169 176 172 152 210 203 207 155 174 191 187 199 180 200 191 238 236 157 174 179 181 181 180 187 194 198 201 204 203 203 205 208 211
332 331 331 330 329 330 330 329 325 324 323 321 319 313 307 299 295 294 296 290 283 268 256 238 205 212 278 283 275 325 268 221 242 240 254 225 230 248 285 288 281 193 190 216 213 204 169 171 186 190 152 141 203 208 157 138 187 199 204 171 191 194 193 139 198 194 198 171 204 203 232 158 228 182 176 186 184 189 191 193 198 203 206 205 205 206 208 208
334 333 332 331 329 330 328 325 325 324 324 321 318 312 305 295 295 302 303 285 291 166 165 203 167 181 240 118 336 282 249 231 259 273 235 189 214 226 256 263 244 196 176 128 182 189 186 176 159 155 240 221 174 188 171 203 185 199 203 206 175 182 175 206 106 207 194 192 195 209 231 220 46 171 174 183 190 194 199 196 200 203 205 207 208 206 207 210
335 333 332 329 330 328 328 327 324 327 328 325 321 313 302 297 306 317 33 62 117 109 121 64 121 176 256 234 260 238 39 301 161 279 282 269 221 229 226 242 244 192 142 140 156 168 170 177 179 197 168 197 182 198 191 202 196 178 178 176 152 174 180 192 174 179 196 196 201 192 214 224 176 157 185 181 189 195 203 205 203 203 207 208 210 209 211 213
335 334 330 330 327 331 329 330 326 330 330 327 314 304 295 302 55 174 144 171 158 130 173 181 166 182 240 159 247 294 263 235 296 281 297 299 124 217 217 237 261 188 163 176 169 172 167 171 178 184 197 192 197 195 193 27 135 155 167 180 160 171 185 201 192 150 182 192 205 188 202 212 203 166 178 195 194 197 205 209 215 213 213 212 212 213 214 218
334 331 330 329 325 329 328 329 327 329 334 328 331 322 326 355 341 216 217 255 232 235 254 239 196 231 283 271 234 204 291 268 293 250 249 269 97 55 212 204 199 228 178 189 148 189 160 189 192 201 204 190 179 188 203 25 168 149 174 177 186 184 182 196 196 164 189 182 205 195 199 205 211 178 181 188 192 206 210 211 213 213 212 209 216 215 216 219
331 330 329 327 327 326 323 328 326 328 334 328 323 329 358 348 337 326 304 255 240 244 243 240 213 218 228 247 258 333 328 294 221 264 235 11 321 325 247 178 183 185 201 167 140 146 182 211 212 199 144 166 179 182 217 307 347 164 173 184 181 190 192 193 194 165 192 189 193 188 196 210 210 183 188 184 191 205 208 212 215 216 212 211 213 215 219 221
328 330 329 326 327 324 323 324 327 319 338 116 68 349 287 227 262 293 336 302 259 233 232 239 241 247 244 253 259 9 299 284 274 248 257 218 249 209 192 190 184 194 154 152 147 160 199 214 196 158 160 160 169 178 210 222 167 199 182 183 182 194 180 170 200 170 177 205 196 180 201 207 202 182 183 184 192 203 206 211 213 211 211 213 215 219 221 214
328 327 324 324 324 321 322 324 322 324 314 104 100 277 251 249 147 152 276 274 282 221 229 232 239 244 251 252 249 170 229 237 263 265 209 174 193 202 172 192 189 170 163 178 181 179 202 213 159 167 165 168 170 182 202 217 239 213 187 178 194 157 174 191 201 178 180 197 167 177 202 203 59 344 196 197 197 205 207 215 222 220 217 216 215 214 215 217
325 325 322 321 322 322 323 326 323 2 62 28 289 258 250 141 165 129 277 290 297 296 205 225 224 233 243 233 217 198 218 246 184 273 181 168 180 183 190 195 169 181 190 189 194 188 195 162 154 170 175 173 174 179 192 209 209 223 250 197 180 167 199 217 169 175 155 4 172 161 197 227 205 173 192 206 202 206 211 213 219 228 229 223 223 222 219 219
325 324 324 323 323 324 325 321 318 314 230 300 281 252 242 213 196 174 293 287 249 260 166 253 182 228 234 149 142 194 211 237 234 277 207 187 174 167 194 170 188 199 196 190 195 183 179 161 164 177 175 184 174 182 195 192 206 209 228 224 189 170 187 140 133 147 176 199 186 165 165 220 163 207 195 185 196 212 206 201 210 216 216 206 215 220 218 219
325 323 321 322 323 326 327 306 180 243 315 302 287 225 182 131 163 153 281 289 292 279 203 287 158 360 134 167 157 203 136 265 204 223 217 226 210 184 146 202 202 198 180 175 190 199 177 110 184 177 179 180 184 189 189 190 199 190 202 202 226 214 180 150 158 168 186 201 180 202 205 191 147 210 202 189 195 208 205 208 206 208 216 215 223 222 216 218
325 321 322 323 325 327 322 311 330 304 299 301 145 161 256 152 137 138 291 239 264 91 216 89 225 330 219 169 165 163 221 82 147 217 206 220 204 207 203 180 172 197 156 154 182 209 180 172 183 183 181 183 188 191 183 189 185 199 111 173 188 189 180 172 169 187 170 46 89 200 225 228 200 215 195 192 199 209 210 213 212 211 212 218 223 216 212 212
323 323 323 321 320 318 291 296 299 280 246 173 125 114 103 135 150 93 238 321 277 111 249 193 221 107 250 157 169 202 38 335 226 115 199 194 225 180 227 187 181 172 167 176 196 126 176 179 180 182 188 189 196 181 163 186 192 198 136 165 182 189 157 155 181 186 141 178 193 191 149 224 230 109 166 178 199 213 213 215 217 219 219 221 222 219 218 213
320 322 322 319 317 313 291 257 261 251 251 161 121 135 109 132 195 118 116 255 119 211 34 59 294 237 147 147 193 233 301 9 332 52 156 185 230 226 201 192 182 165 181 194 190 100 192 194 179 184 189 195 164 158 171 186 181 228 131 147 141 133 170 175 169 179 148 193 209 181 181 215 206 141 170 180 202 207 209 213 217 218 219 220 221 222 220 211
321 322 320 319 316 297 273 228 237 238 173 125 119 125 147 97 225 208 110 256 60 275 151 315 228 260 167 169 217 227 245 273 283 11 157 172 202 249 307 157 180 171 182 193 213 173 171 195 166 183 196 178 162 174 172 185 203 90 147 157 136 145 186 103 44 113 140 220 214 161 187 211 221 188 184 174 204 189 195 208 217 218 220 221 219 218 215 209
323 321 320 317 296 294 282 262 253 234 219 144 115 146 107 70 241 176 233 305 144 231 48 252 210 120 186 192 227 181 235 251 278 200 149 205 171 210 184 161 176 179 172 178 198 205 107 160 176 193 177 170 182 161 185 185 205 170 188 184 151 136 142 156 143 222 212 222 143 183 181 191 226 184 196 201 194 196 190 199 203 206 209 211 208 210 211 207
324 322 319 316 289 251 219 227 295 272 171 164 141 82 3 289 168 219 237 90 273 108 213 265 190 193 213 228 237 160 180 192 232 188 173 179 171 186 190 177 178 159 178 173 182 205 216 187 159 163 185 186 184 177 179 191 201 208 190 186 183 161 162 168 169 196 214 208 96 150 157 180 227 248 174 199 207 205 204 199 202 204 207 202 195 198 203 203
327 323 321 317 301 209 225 225 32 109 128 145 122 134 257 288 289 241 268 5 262 192 260 168 250 218 183 180 222 203 276 217 168 188 176 185 185 195 191 199 175 193 177 174 170 184 197 145 190 183 182 198 189 184 169 189 199 202 194 187 187 167 182 183 180 174 96 71 38 169 168 231 61 237 219 203 208 205 205 210 210 202 192 184 180 184 196 199
325 326 321 323 274 229 229 213 213 146 119 122 128 236 197 245 258 241 260 210 265 158 265 261 288 253 180 205 119 160 171 249 183 155 183 174 190 185 201 212 181 167 146 161 178 181 163 177 201 183 192 183 199 203 181 198 188 198 204 195 203 189 187 154 182 180 186 166 104 178 166 215 168 192 166 203 211 213 212 218 73 94 160 169 173 181 191 195
326 320 314 326 339 244 217 211 195 198 131 131 338 208 293 273 268 297 301 302 287 298 266 211 271 114 168 213 48 208 281 143 191 164 181 181 186 193 186 191 202 236 145 163 174 176 200 186 152 197 107 176 198 198 160 153 176 215 159 154 211 211 352 158 135 132 135 130 127 170 208 174 180 44 340 3 26 213 205 200 177 163 158 160 171 185 194 195
330 331 323 299 356 355 182 188 179 191 157 139 254 259 246 240 283 93 306 172 258 311 312 318 358 160 109 211 102 241 201 232 147 165 177 205 181 190 194 188 197 209 179 172 156 175 173 219 141 182 232 188 197 180 188 181 182 179 172 198 195 74 100 99 55 32 55 135 204 100 244 238 312 281 86 63 152 185 180 186 186 174 169 173 182 187 189 191
344 332 21 333 16 11 154 163 165 164 193 180 256 282 268 270 238 282 272 290 301 307 302 320 14 323 176 149 146 183 176 139 147 171 171 184 180 201 193 203 213 182 236 187 169 291 169 159 161 174 203 210 191 190 196 205 54 121 206 176 80 59 20 180 159 145 174 189 176 156 197 179 170 188 92 147 161 169 185 183 186 175 171 181 187 185 188 190
328 313 268 347 348 35 145 157 155 160 134 236 237 267 232 267 165 202 270 285 301 188 287 298 237 151 204 154 163 175 176 189 160 185 172 180 193 180 185 202 194 206 217 230 233 186 212 141 177 188 179 183 177 188 202 222 226 205 195 101 184 179 205 76 142 169 170 188 154 194 260 272 203 196 131 194 184 183 191 179 171 176 184 189 184 186 187 185
300 310 45 352 2 126 145 156 159 172 222 283 269 297 212 264 260 261 271 274 235 301 282 357 323 216 285 197 133 156 161 166 152 216 172 170 181 175 193 193 197 208 218 188 235 147 248 170 151 196 188 166 177 191 198 189 202 320 130 181 344 344 99 149 221 49 170 174 158 161 183 219 199 226 180 198 198 183 175 177 188 189 190 183 177 181 183 183
1 339 45 339 10 135 156 179 167 237 307 292 306 276 283 297 298 301 292 288 250 196 252 316 4 6 257 275 188 146 193 187 171 191 238 153 219 167 190 196 207 190 199 191 223 296 195 341 156 186 183 152 193 194 203 186 170 175 191 185 159 223 349 352 103 206 193 167 198 175 198 225 199 208 200 204 196 189 175 183 194 196 189 180 176 178 181 184
331 262 41 347 94 140 209 283 281 334 317 280 248 269 304 274 313 303 307 293 253 220 228 202 265 323 247 219 156 145 169 186 185 192 194 157 160 168 233 206 198 182 151 166 231 214 154 157 163 149 163 195 198 186 191 178 180 183 194 182 180 164 172 192 192 90 262 196 178 172 229 145 201 138 214 216 199 183 191 189 191 185 176 179 181 181 179 183
325 24 24 144 348 256 270 329 266 242 290 307 325 320 299 304 301 298 318 62 279 274 183 280 234 255 193 256 8 25 189 191 205 215 213 175 188 201 191 212 196 154 165 182 205 192 210 151 143 176 188 182 112 144 180 162 167 174 194 166 184 177 198 200 193 172 126 56 73 61 343 237 98 14 291 253 202 204 187 171 158 168 179 181 181 181 182 182
15 289 292 344 340 207 246 245 235 331 303 272 298 279 251 267 263 295 316 327 331 349 281 258 271 310 159 216 139 200 198 209 196 222 197 191 182 201 184 191 182 170 185 194 245 193 174 233 140 96 96 91 31 134 158 168 150 165 207 177 173 195 199 199 213 106 199 127 188 157 222 250 87 26 303 244 230 186 172 178 160 168 175 180 178 179 178 178
313 299 308 328 347 157 315 12 337 337 327 312 315 276 237 248 303 318 332 323 342 330 337 292 299 212 315 213 239 254 195 226 177 237 176 176 212 177 187 181 177 194 174 185 196 164 186 263 158 134 155 150 126 145 172 186 197 204 190 180 192 150 126 137 133 81 250 187 281 251 209 212 84 356 53 169 165 170 169 166 159 160 171 175 175 175 174 169
282 233 244 295 359 346 358 349 320 320 329 327 331 326 339 291 213 302 315 320 324 339 314 318 295 326 274 324 276 259 266 249 359 269 258 172 281 164 165 172 188 174 206 186 232 117 284 136 178 159 167 171 165 174 182 183 196 186 169 155 192 170 152 153 208 164 230 96 199 232 259 258 353 22 76 142 149 156 167 168 170 162 166 169 168 167 172 168
19 359 321 309 357 352 176 158 238 330 317 335 330 327 323 328 332 338 338 319 329 337 283 280 210 151 276 253 247 222 244 189 209 238 182 70 206 126 153 173 182 193 205 230 225 160 165 196 275 247 187 185 189 141 55 100 141 187 172 172 178 196 168 146 76 154 213 148 208 230 255 317 299 125 189 191 171 165 166 167 166 166 165 164 166 167 167 168
285 48 331 339 320 176 347 302 333 346 319 322 310 323 327 340 321 328 30 302 353 334 319 218 349 19 350 8 7 313 355 169 228 274 8 327 38 257 165 159 164 204 227 223 227 89 265 271 237 217 243 254 93 132 138 171 173 165 160 177 160 173 191 167 190 199 106 143 248 244 149 221 268 189 194 192 189 173 170 167 164 165 165 165 165 159 155 160
32 13 332 44 306 313 340 334 344 321 312 319 281 283 319 335 346 347 327 292 320 313 343 303 346 21 3 342 318 312 340 51 50 360 353 3 154 117 129 145 178 209 230 243 257 256 259 264 238 183 237 207 223 147 152 161 167 162 181 181 180 170 175 195 214 121 160 202 234 336 144 207 262 332 183 179 185 179 174 172 166 162 160 160 162 154 158 162
64 330 275 353 320 299 284 287 305 314 312 317 315 323 335 340 336 340 295 311 329 323 3 318 331 338 344 1 339 292 8 53 7 9 31 348 355 119 114 141 248 251 273 272 271 164 254 257 214 196 187 178 187 195 158 161 157 165 183 189 187 163 186 193 211 174 209 233 3 309 280 256 278 320 195 164 161 164 167 164 157 161 164 164 166 164 158 162
25 344 331 326 271 288 289 305 316 320 319 330 341 346 338 330 333 335 337 314 313 309 320 334 326 328 335 17 349 45 349 34 9 348 4 347 23 20 101 60 201 134 143 257 257 187 203 240 127 170 168 147 166 189 175 158 158 174 175 192 180 178 183 191 206 189 346 299 261 331 296 295 310 51 132 131 150 151 161 164 165 164 164 167 170 172 161 162
322 298 295 309 314 306 314 329 332 325 317 350 358 340 335 331 329 329 297 234 233 280 319 319 318 319 336 7 344 4 323 318 309 304 308 323 339 351 31 166 22 322 348 276 239 169 188 256 114 161 171 125 118 172 181 151 160 162 173 183 170 174 184 178 202 200 181 226 174 334 296 278 76 126 124 160 155 159 162 170 166 167 170 170 172 176 175 168
316 272 290 290 295 304 324 331 326 334 359 353 345 324 331 312 321 328 321 234 238 256 282 312 315 310 319 317 321 348 339 317 298 300 302 265 251 270 250 256 282 288 307 259 334 237 209 194 198 189 164 99 77 155 146 129 117 139 201 192 173 176 178 155 264 201 219 175 152 218 243 31 302 154 147 166 168 166 166 171 169 166 171 173 174 177 175 178